Hanford, CA

7:17 AM PST on December 07, 2016 (GMT -0800)
Hanford Municipal

Weather History for KHJO - May, 2013

Change the Weather History Date:

Saturday, May 4, 2013

  Actual Average Record
Temperature  
Mean Temperature 74 °F 66 °F  
Max Temperature 94 °F 81 °F 100 °F (2004)
Min Temperature 53 °F 51 °F 46 °F (1999)
Degree Days  
Heating Degree Days 0    
Month to date heating degree days 0  
Since 1 July heating degree days 2318  
Cooling Degree Days 9    
Month to date cooling degree days 30  
Year to date cooling degree days 94  
Growing Degree Days 23 (Base 50)    
Moisture  
Dew Point 40 °F    
Average Humidity 42    
Maximum Humidity 71    
Minimum Humidity 13    
Precipitation  
Precipitation 0.00 in 0.02 in 0.06 in (2003)
Month to date precipitation 0.00 0.08  
Year to date precipitation 1.42 6.27  
Since 1 July precipitation 3.42  
Snow  
Snow 0.00 in - - ()
Month to date snowfall 0.0  
Since 1 July snowfall 0.0  
Snow Depth 0.00 in    
Sea Level Pressure  
Sea Level Pressure 29.64 in    
Wind  
Wind Speed 5 mph (WSW)    
Max Wind Speed 14 mph    
Max Gust Speed 20 mph    
Visibility 9 miles    
Events      
T = Trace of Precipitation, MM = Missing Value Source: NWS Daily Summary

Daily Weather History Graph

Daily Weather History Graph

Search for Another Location

Airport or City:

Trip Planner

Search our weather history database for the weather conditions in past years. The results will help you decide how hot, cold, wet, or windy it might be!

Date:

Astronomy

May. 04, 2013 Rise Set
Actual Time 6:01 AM PDT 7:49 PM PDT
Civil Twilight 5:34 AM PDT 8:17 PM PDT
Nautical Twilight 5:00 AM PDT 8:50 PM PDT
Astronomical Twilight 4:24 AM PDT 9:26 PM PDT
Moon 2:53 AM PDT (5/4) 3:00 PM PDT (5/4)
Length of Visible Light 14h 43m
Length of Day
13h 47m
Waning Crescent, 26% of the Moon is Illuminated
May 4
Waning Crescent
May 9
New
May 17
First Quarter
May 24
Full
May 31
Last Quarter

Hourly Weather History & Observations

Time (PDT) Temp. Dew Point Humidity Pressure Visibility Wind Dir Wind Speed Gust Speed Precip Events Conditions
12:53 AM 68.0 °F 41.0 °F 37% 29.76 in 10.0 mi North 4.6 mph - N/A   Clear
1:53 AM 60.1 °F 42.1 °F 51% 29.75 in 10.0 mi Calm Calm - N/A   Clear
2:53 AM 57.9 °F 44.1 °F 60% 29.74 in 9.0 mi Calm Calm - N/A   Clear
3:53 AM 55.0 °F 44.1 °F 67% 29.73 in 10.0 mi SSE 3.5 mph - N/A   Clear
4:53 AM 55.9 °F 45.0 °F 67% 29.72 in 9.0 mi Calm Calm - N/A   Clear
5:53 AM 53.1 °F 44.1 °F 71% 29.71 in 8.0 mi Calm Calm - N/A   Clear
6:53 AM 57.0 °F 45.0 °F 64% 29.72 in 7.0 mi Calm Calm - N/A   Clear
7:53 AM 66.9 °F 39.0 °F 36% 29.72 in 10.0 mi WSW 3.5 mph - N/A   Clear
8:53 AM 73.9 °F 35.1 °F 24% 29.72 in 10.0 mi NNW 5.8 mph - N/A   Clear
9:53 AM 77.0 °F 36.0 °F 23% 29.70 in 10.0 mi Calm Calm - N/A   Clear
10:53 AM 82.0 °F 39.0 °F 22% 29.69 in 10.0 mi Variable 3.5 mph - N/A   Clear
11:53 AM 84.9 °F 39.9 °F 20% 29.66 in 9.0 mi Variable 4.6 mph - N/A   Clear
12:53 PM 88.0 °F 37.9 °F 17% 29.63 in 9.0 mi Variable 5.8 mph - N/A   Clear
1:53 PM 93.0 °F 37.9 °F 15% 29.61 in 9.0 mi Variable 3.5 mph - N/A   Clear
2:53 PM 91.0 °F 34.0 °F 13% 29.59 in 10.0 mi WNW 5.8 mph - N/A   Clear
3:53 PM 93.0 °F 39.9 °F 16% 29.55 in 9.0 mi Variable 3.5 mph - N/A   Clear
4:53 PM 93.0 °F 43.0 °F 18% 29.53 in 10.0 mi ENE 6.9 mph - N/A   Clear
5:53 PM 91.0 °F 45.0 °F 20% 29.52 in 9.0 mi NE 5.8 mph - N/A   Clear
6:53 PM 89.1 °F 42.1 °F 19% 29.52 in 10.0 mi SW 5.8 mph - N/A   Clear
7:53 PM 84.9 °F 41.0 °F 21% 29.53 in 8.0 mi West 10.4 mph - N/A   Clear
8:53 PM 75.9 °F 36.0 °F 23% 29.56 in 10.0 mi SW 11.5 mph - N/A   Clear
9:53 PM 72.0 °F 33.1 °F 24% 29.58 in 10.0 mi SW 8.1 mph - N/A   Clear
10:53 PM 70.0 °F 30.0 °F 23% 29.60 in 10.0 mi WSW 5.8 mph - N/A   Clear
11:53 PM 66.0 °F 34.0 °F 30% 29.62 in 10.0 mi SE 9.2 mph - N/A   Clear